Regional Weather Roundup
Issued by NWS Little Rock, AR

Home | Current Version | Previous Version | Text Only | Print | Product List | Glossary Off
Versions: 1 2 3 4 5 6 7 8 9 10 11 12 13 14 15 16 17 18 19 20 21 22 23 24 25 26 27 28 29 30 31

000
ASUS44 KLZK 250105
RWRLZK

WEATHER ROUNDUP FOR ARKANSAS
NATIONAL WEATHER SERVICE LITTLE ROCK AR
800 PM CDT FRI MAR 24 2017

NOTE: "FAIR" INDICATES FEW OR NO CLOUDS BELOW 12,000 FEET WITH NO
SIGNIFICANT WEATHER AND/OR OBSTRUCTIONS TO VISIBILITY.

ARZ001-003-010-029-250200-
NORTHWEST ARKANSAS

CITY           SKY/WX    TMP DP  RH WIND       PRES   REMARKS
FAYETTEVILLE   CLOUDY    57  55  93 SE10      29.83R
FORT SMITH     MOCLDY    59  55  87 CALM      29.79F
HARRISON       CLOUDY    61  58  90 SE18      29.85F
BENTONVILLE    CLOUDY    57  54  88 SE9       29.81F
ROGERS         LGT RAIN  57  55  93 SE9       29.82R
SILOAM SPGS    CLOUDY    59  54  82 SE8       29.80R
HIGHFILL       CLOUDY    57  56  96 SE6       29.80S
SPRINGDALE     CLOUDY    57  55  94 SW6G13    29.83
$$

ARZ004-005-016-250200-
NORTH CENTRAL ARKANSAS

CITY           SKY/WX    TMP DP  RH WIND       PRES   REMARKS
BATESVILLE     CLOUDY    73  54  49 S9G21     29.93F
FLIPPIN        CLOUDY    66  52  59 S10G21    29.84S
MTN HOME       LGT RAIN  66  58  75 S10G24    29.86F
$$

ARZ040-041-250200-
WEST CENTRAL ARKANSAS

CITY           SKY/WX    TMP DP  RH WIND       PRES   REMARKS
MENA           CLOUDY    66  64  94 S6        29.83R THUNDER
MOUNT IDA      HVY RAIN  64  62  93 VRB6      29.81S VSB 1
$$

ARZ009-017-025-026-028-250200-
NORTHEAST ARKANSAS

CITY           SKY/WX    TMP DP  RH WIND       PRES   REMARKS
CORNING        CLOUDY    70  59  68 SE14      29.97S
JONESBORO      MOCLDY    72  58  61 SE16      29.97R
NEWPORT        CLOUDY    70  58  65 S12       29.94S
WALNUT RIDGE   CLOUDY    70  57  64 SE12      29.95S
BLYTHEVILLE    MOCLDY    71  59  65 S12G18    30.01
$$

ARZ022-023-033-042-044-250200-
CENTRAL ARKANSAS

CITY           SKY/WX    TMP DP  RH WIND       PRES   REMARKS
LITTLE ROCK    CLOUDY    73  59  61 S15       29.90F
N LITTLE ROCK    N/A     72  59  62 S10G21    29.90F
JACKSONVILLE   CLOUDY    74  59  58 SE10      29.89F
CONWAY           N/A     68  61  77 S9        29.85F
SEARCY         CLOUDY    73  58  59 S13G21    29.93F
HOT SPRINGS    RAIN      67  63  87 SE16G24   29.84F FOG
RUSSELLVILLE   CLOUDY    64  60  87 VRB7      29.83F
CLINTON        RAIN      63  57  82 SW9G18    29.91R
$$

ARZ036-250200-
EAST ARKANSAS

CITY           SKY/WX    TMP DP  RH WIND       PRES   REMARKS
WEST MEMPHIS   PTCLDY    72  60  66 SE20      29.98S
$$

ARZ050-053-066-070-073-250200-
SOUTHWEST ARKANSAS

CITY           SKY/WX    TMP DP  RH WIND       PRES   REMARKS
ARKADELPHIA    TSTM      67  62  84 S9        29.90R
CAMDEN         CLOUDY    75  55  50 SE16G23   29.88F
TEXARKANA      HVY RAIN  64  63  96 S15       29.85F VSB 1
EL DORADO      LGT RAIN  75  59  57 SE22G31   29.89F
DE QUEEN       LGT RAIN  65  64  97 S12G17    29.81R
$$

ARZ056-057-069-250200-
SOUTHEAST ARKANSAS

CITY           SKY/WX    TMP DP  RH WIND       PRES   REMARKS
PINE BLUFF     MOCLDY    74  58  57 S16       29.92F
STUTTGART      CLOUDY    73  54  49 S13       29.94F
MONTICELLO     MOCLDY    75  58  55 S9G16     29.95R

$$






USA.gov is the U.S. government's official web portal to all federal, state and local government web resources and services.